{"data":{"norad_id":64102,"epoch":"2026-09-20T10:23:34.858176Z","epoch_age_seconds":149362,"freshness":"FRESH","line1":"1 64102U 25110G   26263.43304234  .00023153  00000+0  69484-3 0  9991","line2":"2 64102  53.1576 198.2996 0001083  64.0990 296.0125 15.34374088 75758","mean_motion":15.34374088,"eccentricity":0.0001083,"inclination_deg":53.1576,"raan_deg":198.2996,"arg_perigee_deg":64.099,"mean_anomaly_deg":296.0125,"bstar":0.00069484,"rev_number":7575,"period_min":93.849342951104,"perigee_km":462.0393858767,"apogee_km":463.52112855461,"semimajor_km":6840.9172572157,"source":"CELESTRAK","updated_at":"2026-09-21T09:00:35.227691Z"}}